When you browse on this site, cookies collect data to enhance your experience and personalize the content and advertising you see.
Visit our Privacy Policy to learn more. By continuing to use the site, you agree to this use of cookies and data.
  • In Deutschland
  • Länderverzeichnis
  • Für 7 Tage
  • Wassertemperatur
  • Wetterkarte
  • Widgets
  • user-avatar
    Anmelden

    Stündliche Wetter Tonton

    Heute, 22 September, Sonntag

    Zeit Temperatur Niederschläge Wind Luftdruck Luftfeuchtigkeit
    00:00 +18°C° 0 mm 4 m/S 750 mmHg 94%
    01:00 +18°C° 0 mm 4 m/S 750 mmHg 94%
    02:00 +17°C° 0 mm 5 m/S 749 mmHg 93%
    03:00 +17°C° 0 mm 6 m/S 748 mmHg 92%
    04:00 +16°C° 0.7 mm 5 m/S 748 mmHg 94%
    05:00 +17°C° 0.7 mm 4 m/S 749 mmHg 95%
    06:00 +17°C° 0.7 mm 3 m/S 749 mmHg 97%
    07:00 +17°C° 1 mm 3 m/S 749 mmHg 95%
    08:00 +17°C° 1 mm 4 m/S 749 mmHg 93%
    09:00 +17°C° 1 mm 4 m/S 749 mmHg 92%
    10:00 +16°C° 0.1 mm 5 m/S 749 mmHg 88%
    11:00 +17°C° 0.1 mm 5 m/S 750 mmHg 85%
    12:00 +19°C° 0.1 mm 6 m/S 750 mmHg 82%
    13:00 +19°C° 0.1 mm 6 m/S 750 mmHg 80%
    14:00 +19°C° 0.1 mm 6 m/S 750 mmHg 77%
    15:00 +19°C° 0.1 mm 6 m/S 750 mmHg 74%
    16:00 +17°C° 0.2 mm 5 m/S 750 mmHg 80%
    17:00 +17°C° 0.2 mm 4 m/S 750 mmHg 86%
    18:00 +14°C° 0.2 mm 3 m/S 750 mmHg 92%
    19:00 +14°C° 0.1 mm 4 m/S 751 mmHg 92%
    20:00 +13°C° 0.1 mm 4 m/S 751 mmHg 93%
    21:00 +13°C° 0.1 mm 5 m/S 752 mmHg 94%
    22:00 +13°C° 0 mm 6 m/S 752 mmHg 93%
    23:00 +13°C° 0 mm 6 m/S 753 mmHg 93%

    Morgen, 23 September, Montag

    Zeit Temperatur Niederschläge Wind Luftdruck Luftfeuchtigkeit
    00:00 +13°C° 0 mm 6 m/S 753 mmHg 93%
    01:00 +11°C° 0 mm 6 m/S 754 mmHg 93%
    02:00 +12°C° 0 mm 5 m/S 754 mmHg 93%
    03:00 +11°C° 0 mm 4 m/S 754 mmHg 93%
    04:00 +11°C° 0 mm 4 m/S 755 mmHg 93%
    05:00 +11°C° 0 mm 4 m/S 755 mmHg 94%
    06:00 +11°C° 0 mm 3 m/S 755 mmHg 94%
    07:00 +12°C° 0 mm 4 m/S 755 mmHg 90%
    08:00 +14°C° 0 mm 5 m/S 755 mmHg 86%
    09:00 +16°C° 0 mm 6 m/S 756 mmHg 82%
    10:00 +16°C° 0.1 mm 6 m/S 755 mmHg 80%
    11:00 +17°C° 0.1 mm 7 m/S 755 mmHg 78%
    12:00 +17°C° 0.1 mm 8 m/S 755 mmHg 76%
    13:00 +16°C° 1.5 mm 8 m/S 754 mmHg 83%
    14:00 +15°C° 1.5 mm 8 m/S 754 mmHg 89%
    15:00 +13°C° 1.5 mm 9 m/S 753 mmHg 95%
    16:00 +15°C° 2.5 mm 8 m/S 753 mmHg 95%
    17:00 +15°C° 2.5 mm 7 m/S 752 mmHg 96%
    18:00 +16°C° 2.5 mm 7 m/S 752 mmHg 96%
    19:00 +16°C° 0.2 mm 7 m/S 752 mmHg 96%
    20:00 +16°C° 0.2 mm 6 m/S 752 mmHg 96%
    21:00 +16°C° 0.2 mm 6 m/S 752 mmHg 97%
    22:00 +16°C° 0.1 mm 6 m/S 752 mmHg 96%
    23:00 +16°C° 0.1 mm 6 m/S 751 mmHg 96%

    übermorgen, 24 September, Dienstag

    Zeit Temperatur Niederschläge Wind Luftdruck Luftfeuchtigkeit
    00:00 +16°C° 0.1 mm 6 m/S 751 mmHg 96%
    01:00 +16°C° 0.1 mm 6 m/S 750 mmHg 96%
    02:00 +16°C° 0.1 mm 5 m/S 750 mmHg 96%
    03:00 +16°C° 0.1 mm 5 m/S 749 mmHg 96%
    04:00 +16°C° 3 mm 6 m/S 748 mmHg 96%
    05:00 +15°C° 3 mm 6 m/S 748 mmHg 96%
    06:00 +15°C° 3 mm 7 m/S 747 mmHg 95%
    07:00 +15°C° 2 mm 7 m/S 747 mmHg 93%
    08:00 +16°C° 2 mm 7 m/S 747 mmHg 90%
    09:00 +16°C° 2 mm 6 m/S 747 mmHg 88%
    10:00 +17°C° 0.4 mm 7 m/S 747 mmHg 84%
    11:00 +17°C° 0.4 mm 7 m/S 748 mmHg 81%
    12:00 +18°C° 0.4 mm 8 m/S 748 mmHg 78%
    13:00 +17°C° 0.6 mm 8 m/S 748 mmHg 81%
    14:00 +16°C° 0.6 mm 8 m/S 748 mmHg 85%
    15:00 +16°C° 0.6 mm 8 m/S 748 mmHg 88%
    16:00 +15°C° 0.2 mm 8 m/S 748 mmHg 89%
    17:00 +15°C° 0.2 mm 7 m/S 748 mmHg 89%
    18:00 +14°C° 0.2 mm 7 m/S 748 mmHg 90%
    19:00 +14°C° 0.2 mm 7 m/S 748 mmHg 91%
    20:00 +14°C° 0.2 mm 7 m/S 748 mmHg 91%
    21:00 +14°C° 0.2 mm 7 m/S 748 mmHg 92%
    22:00 +13°C° 1 mm 8 m/S 748 mmHg 92%
    23:00 +13°C° 1 mm 9 m/S 748 mmHg 92%

    25 September, Mittwoch

    Zeit Temperatur Niederschläge Wind Luftdruck Luftfeuchtigkeit
    00:00 +13°C° 1 mm 9 m/S 748 mmHg 92%
    01:00 +13°C° 0.5 mm 10 m/S 748 mmHg 92%
    02:00 +13°C° 0.5 mm 10 m/S 748 mmHg 91%
    03:00 +12°C° 0.5 mm 10 m/S 748 mmHg 91%
    04:00 +13°C° 0.5 mm 10 m/S 748 mmHg 90%
    05:00 +13°C° 0.5 mm 10 m/S 748 mmHg 90%
    06:00 +13°C° 0.5 mm 9 m/S 748 mmHg 90%
    07:00 +13°C° 0.1 mm 8 m/S 749 mmHg 90%
    08:00 +15°C° 0.1 mm 7 m/S 749 mmHg 90%
    09:00 +15°C° 0.1 mm 6 m/S 750 mmHg 90%
    10:00 +16°C° 0.2 mm 6 m/S 750 mmHg 89%
    11:00 +16°C° 0.2 mm 7 m/S 750 mmHg 89%
    12:00 +16°C° 0.2 mm 7 m/S 750 mmHg 89%
    13:00 +16°C° 0.1 mm 6 m/S 750 mmHg 89%
    14:00 +16°C° 0.1 mm 6 m/S 750 mmHg 90%
    15:00 +16°C° 0.1 mm 6 m/S 750 mmHg 90%
    16:00 +16°C° 0.2 mm 6 m/S 750 mmHg 92%
    17:00 +16°C° 0.2 mm 6 m/S 750 mmHg 94%
    18:00 +16°C° 0.2 mm 6 m/S 749 mmHg 96%
    19:00 +16°C° 0.8 mm 6 m/S 749 mmHg 95%
    20:00 +16°C° 0.8 mm 6 m/S 749 mmHg 95%
    21:00 +16°C° 0.8 mm 7 m/S 749 mmHg 95%
    22:00 +16°C° 0.1 mm 7 m/S 749 mmHg 94%
    23:00 +16°C° 0.1 mm 7 m/S 749 mmHg 92%

    26 September, Donnerstag

    Zeit Temperatur Niederschläge Wind Luftdruck Luftfeuchtigkeit
    00:00 +15°C° 0.1 mm 7 m/S 749 mmHg 91%
    01:00 +15°C° 0.4 mm 7 m/S 749 mmHg 92%
    02:00 +15°C° 0.4 mm 8 m/S 749 mmHg 93%
    03:00 +15°C° 0.4 mm 8 m/S 749 mmHg 94%
    04:00 +15°C° 1.4 mm 7 m/S 749 mmHg 94%
    05:00 +15°C° 1.4 mm 6 m/S 748 mmHg 95%
    06:00 +15°C° 1.4 mm 6 m/S 748 mmHg 95%
    07:00 +15°C° 0.2 mm 6 m/S 749 mmHg 91%
    08:00 +15°C° 0.2 mm 6 m/S 749 mmHg 88%
    09:00 +15°C° 0.2 mm 6 m/S 749 mmHg 84%
    10:00 +16°C° 0.1 mm 6 m/S 749 mmHg 79%
    11:00 +16°C° 0.1 mm 7 m/S 749 mmHg 75%
    12:00 +17°C° 0.1 mm 7 m/S 749 mmHg 71%
    13:00 +16°C° 0.5 mm 7 m/S 749 mmHg 75%
    14:00 +16°C° 0.5 mm 7 m/S 749 mmHg 80%
    15:00 +15°C° 0.5 mm 7 m/S 749 mmHg 85%
    16:00 +14°C° 0.3 mm 6 m/S 749 mmHg 86%
    17:00 +14°C° 0.3 mm 6 m/S 749 mmHg 87%
    18:00 +13°C° 0.3 mm 6 m/S 750 mmHg 89%
    19:00 +13°C° 0 mm 6 m/S 750 mmHg 89%
    20:00 +11°C° 0 mm 6 m/S 750 mmHg 89%
    21:00 +11°C° 0 mm 6 m/S 750 mmHg 90%
    22:00 +11°C° 0 mm 6 m/S 750 mmHg 90%
    23:00 +11°C° 0 mm 6 m/S 750 mmHg 90%

    27 September, Freitag

    Zeit Temperatur Niederschläge Wind Luftdruck Luftfeuchtigkeit
    00:00 +11°C° 0 mm 6 m/S 750 mmHg 90%
    01:00 +11°C° 0.2 mm 6 m/S 750 mmHg 89%
    02:00 +11°C° 0.2 mm 6 m/S 750 mmHg 89%
    03:00 +11°C° 0.2 mm 6 m/S 750 mmHg 89%
    04:00 +11°C° 0.1 mm 6 m/S 750 mmHg 89%
    05:00 +11°C° 0.1 mm 6 m/S 750 mmHg 89%
    06:00 +11°C° 0.1 mm 6 m/S 750 mmHg 89%
    07:00 +11°C° 0 mm 6 m/S 750 mmHg 85%
    08:00 +12°C° 0 mm 7 m/S 750 mmHg 82%
    09:00 +14°C° 0 mm 7 m/S 750 mmHg 79%
    10:00 +15°C° 0.2 mm 7 m/S 751 mmHg 78%
    11:00 +15°C° 0.2 mm 7 m/S 751 mmHg 77%
    12:00 +15°C° 0.2 mm 8 m/S 751 mmHg 76%
    13:00 +15°C° 0.3 mm 8 m/S 751 mmHg 78%
    14:00 +16°C° 0.3 mm 8 m/S 751 mmHg 79%
    15:00 +16°C° 0.3 mm 9 m/S 750 mmHg 81%
    16:00 +15°C° 0.2 mm 8 m/S 750 mmHg 83%
    17:00 +13°C° 0.2 mm 8 m/S 750 mmHg 85%
    18:00 +12°C° 0.2 mm 7 m/S 750 mmHg 87%
    19:00 +12°C° 0.2 mm 7 m/S 751 mmHg 88%
    20:00 +12°C° 0.2 mm 8 m/S 751 mmHg 89%
    21:00 +12°C° 0.2 mm 8 m/S 751 mmHg 90%
    22:00 +12°C° 0.2 mm 8 m/S 750 mmHg 90%
    23:00 +12°C° 0.2 mm 8 m/S 750 mmHg 90%
    Mehr zeigen